1st Responders/1st Detectors/Storm Spotters Weather Summary for Calloway County, KY

Forecast Maps


Reg. NEXRAD Animation


National Fire Danger: Day 1 & 2 Map

Current NWS Watch/Warnings

SPC Convective Day 1 Outlook


Day 2 Outlook

(Click images to enlarge|Page will refresh every 5 minutes)
UK Ag. Weather Center Desktop Severe Weather Service[HERE]
Calloway County, KY Hazardous Weather Outlook Webcast
(9 AM to 9 PM Mon-Fri)
[Fast]
[Dial-up]


UKAWC 1st Detectors/1st Responders Precision Weather Forecast For CALLOWAY County, Kentucky
(based on the NWS County Digital Forecast)

ISSUED AT 05:00 UTC ON SUNDAY DEC 17 2017
DAY SUNDAY
CDT 3HR 1A 2A 3A 4A 5A 6A 7A 8A 9A 10A 11A NOON 1P 2P 3P 4P 5P 6P
MAX/MIN -- -- -- -- -- -- 38° -- -- -- -- -- -- -- -- -- -- 49°
TEMP 38° 38° 38° 38° 38° 38° 38° 38° 38° 40° 43° 45° 47° 47° 49° 49° 47° 45°
SKY COVER 76% 80% 84% 95% 93% 96% 100% 99% 99% 98% 97% 97% 96% 94% 92% 89% 87% 85%
Clouds
DEW PT 31° 31° 31° 31° 32° 32° 34° 34° 36° 36° 38° 40° 40° 40° 40° 40° 40° 41°
RH 75% 76% 78% 78% 81% 81% 84% 85% 89% 85% 82% 82% 76% 76% 73% 73% 77% 86%
POP 12HR -- -- -- -- -- -- 38% -- -- -- -- -- -- -- -- -- -- --
RAIN/SNOW (liq.equ) 0.00in -- -- -- -- -- 0.02in -- -- -- -- -- 0.14in -- -- -- -- --
SNOWFALL 0in -- -- -- -- -- 0in -- -- -- -- -- 0in -- -- -- -- --
WIND SPEED(MPH) 6 6 6 6 6 6 6 6 7 7 7 7 7 7 7 7 6 6
WIND Gust(MPH) 7 7 7 7 7 7 7 7 8 9 8 9 10 9 9 9 7 7
WIND DIR S S S S S S S S S SE S S S S S S S S
DEW Frost Frost Frost -- -- -- -- -- -- -- -- -- -- -- -- Lgt Dew Lgt Dew Mod Dew
HeatIndex 33 33 33 33 33 33 33 34 34 36 38 40 47 47 49 49 47 45
Snow -- -- -- -- -- -- -- -- -- -- -- -- -- -- -- -- -- --
Rain -- -- -- -- -- -- -- -- -- -- -- -- -- -- -- -- -- --
Rain Showers -- Slight Chance Slight Chance Chance Chance Chance Definite Definite Definite Slight Chance Chance Slight Chance -- Slight Chance Slight Chance Slight Chance Slight Chance --
WIND CHILL 34° 34° 34° 34° 34° 34° 34° 34° 33° 35° 39° 41° -- -- -- -- -- 42°
SPRAY COND
DRY COND
LIVESTOCK COLDSTRESS



DAY MONDAY TUESDAY WEDNESDAY THURSDAY FRIDAY SATURDAY
CDT 6HR 7P 8P 9P 10P 11P MIDN 1A 2A 3A 4A 5A 6A 7A 8A 9A 10A 11A NOON 1P 4P 7P 10P 1A 4A 7A 10A 1P 4P 7P 1A 7A 1P 7P 1A 7A 1P 7P 1A 7A 1P 7P 1A 7A 1P 7P
MAX/MIN -- -- -- -- -- -- -- -- -- -- -- -- 41° -- -- -- -- -- -- 58° -- -- -- -- 45° -- -- 58° -- -- 38° 54° -- -- 38° 58° -- -- 38° 47° -- -- 29° 40° --
TEMP 43° 43° 43° 41° 41° 41° 41° 43° 43° 43° 43° 41° 41° 43° 45° 47° 50° 52° 54° 58° 50° 49° 47° 47° 45° 54° 54° 58° 47° 40° 38° 52° 47° 40° 40° 56° 49° 45° 38° 47° 40° 31° 31° 40° 36°
SKY COVER 83% 83% 83% 83% 84% 84% 84% 84% 84% 84% 84% 84% 84% 84% 84% 85% 85% 85% 85% 73% 60% 57% 53% 65% 69% 65% 62% 53% 43% 36% 36% 41% 34% 23% 32% 38% 41% 69% 75% 66% 63% 64% 70% 72% 70%
Clouds
DEW PT 43° 41° 43° 41° 41° 41° 41° 41° 43° 41° 43° 41° 41° 43° 43° 45° 45° 45° 45° 43° 45° 43° 45° 43° 43° 45° 45° 43° 40° 36° 34° 34° 34° 32° 34° 40° 40° 40° 36° 31° 27° 22° 22° 22° 22°
RH 96% 95% 99% 99% 99% 100% 100% 96% 99% 95% 100% 99% 99% 99% 92% 89% 83% 77% 69% 59% 82% 82% 89% 89% 92% 71% 69% 55% 76% 81% 82% 50% 60% 73% 78% 54% 68% 82% 96% 53% 59% 68% 71% 49% 56%
POP 12HR 83% -- -- -- -- -- -- -- -- -- -- -- 12% -- -- -- -- -- -- -- 5% -- -- -- 7% -- -- -- 14% -- 18% -- 33% -- 2% -- 4% -- 26% -- 23% -- 23% -- 22%
RAIN/SNOW (liq.equ) 0.01in -- -- -- -- -- 0.00in -- -- -- -- -- 0.00in -- -- -- -- -- 0.00in -- 0.00in -- 0.00in -- 0.00in -- 0.00in -- 0.00in -- -- -- -- -- -- -- -- -- -- -- -- -- -- -- --
SNOWFALL 0in -- -- -- -- -- 0in -- -- -- -- -- 0in -- -- -- -- -- 0in -- 0in -- 0in -- 0in -- 0in -- 0in -- -- -- -- -- -- -- -- -- -- -- -- -- -- -- --
WIND SPEED(MPH) 5 5 5 5 5 2 2 2 2 2 2 5 5 5 6 6 6 7 7 7 6 6 6 6 5 6 7 7 6 5 7 7 6 6 6 8 7 8 9 10 9 7 8 8 7
WIND DIR S S S S S S S S SW SW SW SW SW SW SW SW SW SW SW SW SW SW SW SW W W W W NW N NE E NE SE SE S S SW W NW N N N NE NE
HeatIndex 41 40 40 39 39 40 40 41 41 41 41 39 39 40 45 47 50 52 54 58 50 49 47 47 45 54 54 58 47 38 34 52 47 37 35 56 49 40 31 47 34 24 22 34 30
Snow -- -- -- -- -- -- -- -- -- -- -- -- -- -- -- -- -- -- -- -- -- -- -- -- -- -- -- -- -- -- -- -- -- -- -- -- -- -- -- -- -- -- Slight Chance -- Slight Chance
Rain -- -- -- -- -- -- -- -- -- -- -- -- -- -- -- -- -- -- -- -- -- -- -- -- -- -- -- -- -- Slight Chance Slight Chance Chance -- -- -- -- -- Chance Slight Chance Slight Chance Slight Chance -- -- Slight Chance Slight Chance
Rain Showers -- -- -- -- -- -- -- -- -- -- -- -- -- -- -- -- -- -- -- -- -- -- -- -- -- -- -- -- -- -- -- -- -- -- -- -- -- -- -- -- -- -- -- -- --
WIND CHILL 40° 40° 40° 38° 38° -- -- -- -- -- -- 38° 38° 40° 42° -- -- -- -- -- -- -- -- -- 43° -- -- -- -- 37° 33° -- -- 36° 36° -- -- 41° 32° -- 34° 25° 24° 35° 30°
SPRAY COND
DRY COND
LIVESTOCK COLDSTRESS

Click on individual weather variable above in left-hand column (ie., TEMP, RH, QPF 12HR) to view state forecast maps






NWS 48 Hr. Forecast Maps,

Regional Hourly Observations For CALLOWAY County, Kentucky
Issued at 100 AM EST SUN DEC 17 2017
WESTERN AND SOUTH CENTRAL KENTUCKY
  
CITY           SKY/WX    TMP DP  RH WIND       PRES   REMARKS
PADUCAH        CLOUDY    42  29  59 S6        30.15F                  
HENDERSON      CLOUDY    40  31  70 S8        30.17S WCI  34          
OWENSBORO      PTCLDY    38  30  73 S5        30.19F WCI  34          
HOPKINSVILLE   PTCLDY    43  28  56 S6        30.19F                  
BOWLING GREEN  PTCLDY    41  31  67 S3        30.22F                  
GLASGOW        NOT AVBL                                               


Current NOWCAST not available:
Nowcasts are not issued routinely during fair weather. Only when
precipitation or other significant weather is occuring in this county will these
forecasts be issued. Currently, there is no short term forecast in effect.


Fire Weather Forecast For CALLOWAY County, KY
Provided by the National Weather Service:

Issued at: Sun Dec 17 01:05:02 EST 2017

Cloud Cover           PCldy        Cloudy       MCldy        MCldy        
Precip Type           rain         rain         NONE         NONE         
Chance Precip (%)     70           90           0            0            
High Temperature(F)                46-50                     55-59        
Minimum RH(%)                      69-74                     55-60        
Low Temperature(F)    35-39                     38-42                     
Maximum RH(%)         89-94                     95-100                    
Temp (24h Trend)      37 (+7)      49 (-2)      40           58           
RH % (24h Trend)      92 (+1)      72 (+28)     100          58           
20FTWND-AM(MPH)                    S 4-8                     SW 3-7       
20FTWND-PM(MPH)       S 4-8        S 3-7        Lgt/Var      SW 5-9       
Precip Amount         0.04         0.15         0.00         0.00         
Precip Duration       1            7                                      
Precip Begin          12 AM        Continuing                             
Precip End            Continuing   6 PM                                   
1700'Mix Hgt Temp                  49                        56           
Mixing Hgt(FT-AGL)                 2410                      3561         
Transport Wind (KTS)               SW 11                     SW 17        
Transport Wind (M/S)               SW  6                     SW  9        
Vent Rate (M/S-M)                  4410                      9765         
Dispersion Index                   Fair                      Good         
LAL                   1            1            1            1            
Haines Index          3            2            2            3            
Stability(DSI)        STBL         STBL         STBL         STBL         

Remarks...None.

.Forecast for days 3 through 7...

.MONDAY NIGHT...Mostly cloudy. Lows in the mid 40s. Southwest
winds 5 to 10 mph. 
.TUESDAY...Partly sunny. Highs in the upper 50s. West winds 5 to
10 mph. 
.TUESDAY NIGHT...Partly cloudy with a 20 percent chance of rain.
Lows in the upper 30s. North winds 5 to 10 mph. 
.WEDNESDAY...Partly sunny with a 20 percent chance of rain. Highs
in the mid 50s. East winds 5 to 10 mph. 
.WEDNESDAY NIGHT...Partly cloudy. Lows in the upper 30s.
Southeast winds 5 to 10 mph. 
.THURSDAY...Mostly sunny. Highs in the upper 50s. South winds
5 to 10 mph. 
.THURSDAY NIGHT...Mostly cloudy with a 30 percent chance of rain.
Lows in the upper 30s. Southwest winds 5 to 15 mph. 
.FRIDAY...Partly sunny with a 20 percent chance of rain. Cooler.
Highs in the upper 40s. Northwest winds 10 to 15 mph. 
.FRIDAY NIGHT...Mostly cloudy with a 20 percent chance of rain
and snow. Lows in the upper 20s. North winds 5 to 15 mph. 
.SATURDAY...Mostly cloudy with a 20 percent chance of rain. Highs
around 40. Northeast winds 5 to 15 mph. 

SPC's Fire Weather Web Tool (Excellent!), SPC's Fire Weather Outlooks, NWS Fire Weather WEB, Fire Danger Class Map,
Keetch-Byram Drought Index, ROMAN Web, Haines Index ,
WFAS's 10-hr Dead Fuel Moist., WFAS's 100-hr Dead Fuel Moist., Probablity of Ignition, Visual blackness Map, Palmer Drought Index, HPC's Rainfall Forecast Maps


Hazardous Weather Outlook For CALLOWAY County, Kentucky
335 AM CST Sat Dec 16 2017

 DAY ONE  Today and Tonight

No hazardous weather is expected at this time.

 DAYS TWO THROUGH SEVEN  Sunday through Friday

No hazardous weather is expected at this time.

 SPOTTER INFORMATION STATEMENT  

Spotter activation is not anticipated.

Latest CALLOWAY County, Kentucky Watches, Warnings and Advisories.
Additional Drought Info.: UKAWC Drought Page, Kentucky Drought Watch


7-Day Forecast For CALLOWAY County, KY

TONIGHT
Mostly cloudy. A 50 percent chance of rain after midnight. Lows in the upper 30s. South winds around 5 mph.

SUNDAY
Cloudy. Rain in the morning, then a slight chance of rain in the afternoon. Highs in the upper 40s. South winds around 5 mph. Chance of precipitation 90 percent.

SUNDAY NIGHT
Mostly cloudy. Lows in the lower 40s. South winds around 5 mph.

MONDAY
Mostly cloudy. Highs in the upper 50s. Southwest winds 5 to 10 mph.

MONDAY NIGHT
Partly cloudy in the evening then becoming mostly cloudy. Lows in the mid 40s. Southwest winds 5 to 10 mph.

TUESDAY
Partly sunny. Highs in the upper 50s.

TUESDAY NIGHT
Partly cloudy. A 20 percent chance of rain after midnight. Lows in the upper 30s.

WEDNESDAY
Partly sunny with a 40 percent chance of rain. Highs in the mid 50s.

WEDNESDAY NIGHT
Mostly clear. Lows in the upper 30s.

THURSDAY
Partly sunny. Highs in the upper 50s.

THURSDAY NIGHT
Mostly cloudy. A 30 percent chance of rain after midnight. Lows in the upper 30s.

FRIDAY
Partly sunny with a 30 percent chance of rain. Highs in the upper 40s.

FRIDAY NIGHT
Mostly cloudy. A 20 percent chance of rain and snow in the evening. Lows around 30.

SATURDAY
Mostly cloudy. A slight chance of rain and snow in the morning, then a slight chance of rain in the afternoon. Highs around 40. Chance of precipitation 20 percent.

Ag Weather Center, Department of Biosystems & Agricultural Engineering, University of Kentucky